Location: Binningen
(47.7924°N, 8.7261°E)
Time: 04:48:26
(UTC+00:00)

Cosmos 1833 - Pass Details

Date: 17 May 2021
Orbit: 833 x 865 km, 70.9° (Epoch: 14 June)

Event Time Altitude Azimuth Distance (km) Brightness Sun altitude
Rises 21:43:17 0° 333° (NNW) 3,446 9.1 -19.2°
Reaches altitude 10° 21:45:46 10° 335° (NNW) 2,509 7.9 -19.3°
Maximum altitude 21:51:33 74° 61° (ENE) 902 4.3 -19.7°
Enters shadow 21:54:02 36° 138° (SE) 1,353 4.8 -19.9°
